User: anonymous   Login
Location: Lawrence Hall of Science
(37.8785°N, 122.2415°W)
Time: 17:04:24
(UTC-08:00)
Language:

ARGOS - Orbit

View from above orbital plane
View from above orbital plane
View from above satellite
View from above satellite

Ground track
Ground track

The orbit data is extracted from the following two-line orbital elements,

1 25634U 99008A   15026.23115910  .00000022  00000-0  31593-4 0  3737
2 25634 098.7326 095.9202 0010209 196.3878 232.4752 14.19209453824645
Epoch (UTC): 26 January 2015 05:32:52
Eccentricity: 0.0010209
inclination: 98.7326°
perigee height: 820 km
apogee height: 835 km
right ascension of ascending node: 95.9202°
argument of perigee: 196.3878°
revolutions per day: 14.19209453
mean anomaly at epoch: 232.4752°
orbit number at epoch: 82464

The dashed part of the orbit path shows where the satellite is in the earth's shadow,  

DLR